Retour au catalogue

ARIANE 5 R/B

ActifHEO
NORAD 36034·ROCKET BODY·🇫🇷 France

Lancé Oct 29, 2009 depuis Guiana Space Centre

Loading…

Prochains Passages (prochaines 24 heures)

TLE

FraisSource: Space-Track

Époque: Sep 14, 2026, 10:15 UTC

1 36034U 09058C   26257.42759272  .00043271  49271-6  10355-2 0  9990
2 36034   6.2427 244.1053 6074562 305.6450  11.7768  4.01274104195492

Suivez ARIANE 5 R/B en temps réel avec AllMySat

Download on the App Store